Weather History for Buffalo, WY

Change the Weather History Date:

Sunday, May 19, 2013

  Actual Average Record
Temperature  
Mean Temperature 53 °F 53 °F  
Max Temperature 59 °F 64 °F 90 °F (2009)
Min Temperature 46 °F 41 °F 28 °F (2003)
Degree Days  
Heating Degree Days 12 12  
Month to date heating degree days 205 278  
Since 1 July heating degree days 6910 7122  
Cooling Degree Days 0 0  
Month to date cooling degree days 10 0  
Year to date cooling degree days 10 0  
Moisture  
Dew Point 45 °F    
Average Humidity 80    
Maximum Humidity 93    
Minimum Humidity 66    
Precipitation  
Precipitation 0.31 in 0.10 in 1.04 in (2011)
Month to date precipitation 1.01 1.52  
Year to date precipitation 2.53 4.51  
Sea Level Pressure  
Sea Level Pressure 29.88 in    
Wind  
Wind Speed 21 mph (NNW)    
Max Wind Speed 35 mph    
Max Gust Speed 43 mph    
Visibility 9 miles    
Events Rain    
T = Trace of Precipitation, MM = Missing Value Source: NWS Daily Summary

Daily Weather History Graph

Daily Weather History Graph

Search for Another Location

Airport:

Trip Planner

Search our weather history database for the weather conditions in past years. The results will help you decide how hot, cold, wet, or windy it might be!

Date:

Astronomy

May. 19, 2013 Rise Set
Actual Time 5:35 AM MDT 8:32 PM MDT
Civil Twilight 5:01 AM MDT 9:06 PM MDT
Nautical Twilight 4:17 AM MDT 9:50 PM MDT
Astronomical Twilight 3:25 AM MDT 10:42 PM MDT
Moon 2:26 PM MDT (5/19) 2:14 AM MDT (5/19)
Length of Visible Light 16h 05m
Length of Day
14h 56m
Waxing Gibbous, 66% of the Moon is Illuminated
May 19
Waxing Gibbous
May 24
Full
May 31
Last Quarter
Jun 8
New
Jun 16
First Quarter

Hourly Weather History & Observations

Time (MDT) Temp. Windchill Dew Point Humidity Pressure Visibility Wind Dir Wind Speed Gust Speed Precip Events Conditions
12:53 AM 48.9 °F - 45.0 °F 86% 29.84 in 10.0 mi North 12.7 mph 24.2 mph N/A   Overcast
1:53 AM 48.9 °F - 45.0 °F 86% 29.83 in 10.0 mi North 11.5 mph 21.9 mph N/A   Overcast
2:53 AM 48.0 °F - 44.1 °F 86% 29.83 in 10.0 mi North 18.4 mph 25.3 mph 0.00 in   Overcast
4:53 AM 48.0 °F - 45.0 °F 89% 29.81 in 10.0 mi North 13.8 mph 25.3 mph N/A   Overcast
6:53 AM 48.9 °F - 45.0 °F 86% 29.80 in 10.0 mi North 20.7 mph 25.3 mph N/A   Overcast
7:27 AM 48.2 °F - 44.6 °F 87% 29.87 in 10.0 mi NNW 21.9 mph - N/A   Overcast
7:53 AM 48.9 °F - 46.0 °F 90% 29.82 in 9.0 mi North 19.6 mph 25.3 mph N/A   Overcast
8:09 AM 50.0 °F - 46.4 °F 87% 29.87 in 10.0 mi North 20.7 mph 25.3 mph N/A   Overcast
8:53 AM 48.9 °F - 45.0 °F 86% 29.81 in 10.0 mi NW 25.3 mph 36.8 mph 0.00 in Rain Light Rain
9:53 AM 53.1 °F - 46.0 °F 77% 29.79 in 10.0 mi NNW 21.9 mph 36.8 mph N/A   Overcast
10:37 AM 53.6 °F - 44.6 °F 72% 29.87 in 10.0 mi NNW 26.5 mph 41.4 mph N/A   Overcast
10:53 AM 55.0 °F - 46.0 °F 72% 29.79 in 10.0 mi NNW 23.0 mph 33.4 mph N/A   Overcast
11:17 AM 53.6 °F - 44.6 °F 72% 29.86 in 10.0 mi NNW 27.6 mph 41.4 mph N/A   Overcast
11:53 AM 55.9 °F - 45.0 °F 67% 29.78 in 10.0 mi NNW 26.5 mph 36.8 mph N/A   Mostly Cloudy
2:53 PM 50.0 °F - 45.0 °F 83% 29.82 in 10.0 mi NNW 24.2 mph 38.0 mph 0.04 in Rain Light Rain
3:53 PM 50.0 °F - 46.0 °F 86% 29.84 in 9.0 mi NW 23.0 mph 33.4 mph 0.03 in Rain Light Rain
4:07 PM 51.8 °F - 44.6 °F 76% 29.89 in 10.0 mi NW 23.0 mph 34.5 mph 0.00 in   Overcast
4:53 PM 51.1 °F - 46.0 °F 83% 29.83 in 10.0 mi NNW 25.3 mph 36.8 mph 0.00 in Rain Light Rain
5:53 PM 48.9 °F - 46.0 °F 90% 29.85 in 7.0 mi NNW 23.0 mph 28.8 mph 0.05 in Rain Light Rain
6:53 PM 50.0 °F - 46.0 °F 86% 29.86 in 10.0 mi NNW 24.2 mph 40.3 mph 0.01 in   Overcast
7:09 PM 48.2 °F - 46.4 °F 93% 29.92 in 10.0 mi NNW 19.6 mph 34.5 mph 0.00 in Rain Light Rain
7:18 PM 48.2 °F - 46.4 °F 93% 29.93 in 7.0 mi NW 21.9 mph 28.8 mph 0.00 in Rain Light Rain
7:22 PM 48.2 °F - 46.4 °F 93% 29.93 in 2.5 mi NW 21.9 mph 31.1 mph 0.03 in Rain Heavy Rain
7:24 PM 48.2 °F - 46.4 °F 93% 29.93 in 1.8 mi NNW 23.0 mph 31.1 mph 0.04 in Rain Heavy Rain
7:33 PM 48.2 °F - 46.4 °F 93% 29.93 in 4.0 mi NNW 20.7 mph 28.8 mph 0.05 in Rain Light Rain
7:53 PM 48.9 °F - 46.0 °F 90% 29.89 in 10.0 mi North 21.9 mph 27.6 mph 0.05 in   Overcast
8:13 PM 48.2 °F - 46.4 °F 93% 29.95 in 9.0 mi NNW 20.7 mph 27.6 mph N/A   Overcast
8:22 PM 48.2 °F - 46.4 °F 93% 29.95 in 8.0 mi NNW 20.7 mph 27.6 mph N/A   Overcast
8:46 PM 48.2 °F - 44.6 °F 87% 29.95 in 10.0 mi NNW 16.1 mph 27.6 mph N/A   Overcast
8:53 PM 48.9 °F - 45.0 °F 86% 29.89 in 10.0 mi NNW 15.0 mph 27.6 mph N/A   Overcast
9:28 PM 48.2 °F - 44.6 °F 87% 29.95 in 10.0 mi NNW 21.9 mph 28.8 mph 0.01 in Rain Light Rain
10:22 PM 46.4 °F 38.5 °F 44.6 °F 93% 29.97 in 8.0 mi NNW 21.9 mph 31.1 mph 0.03 in Rain Light Rain
10:43 PM 46.4 °F 39.0 °F 44.6 °F 93% 29.96 in 9.0 mi NNW 19.6 mph 29.9 mph 0.05 in Rain Light Rain
10:53 PM 46.9 °F - 44.1 °F 90% 29.90 in 10.0 mi NNW 23.0 mph 27.6 mph 0.05 in Rain Light Rain
11:23 PM 46.4 °F 38.7 °F 44.6 °F 93% 29.96 in 10.0 mi NW 20.7 mph 29.9 mph 0.00 in   Overcast
11:53 PM 46.9 °F - 44.1 °F 90% 29.89 in 10.0 mi NNW 18.4 mph 27.6 mph 0.00 in Rain Light Rain